INTELSAT 33E DEB, 61990

Orbit data source: Space-Track

INTELSAT 33E DEB, 61990 is space debris in GEO originally from a launch on Wed, 24 Aug 2016 UTC launched from the French Guiana (FRGUI). Debris objects in space refer to the collection of defunct objects orbiting the Earth. Examples of debris include non-operational satellites, rocket bodies, and fragments generated from explosions, collisions, or faulty payload assembly.

Loading next visibility...
Identifier
61990, 2016-053G
Orbit
GEO
Country
Flag of UnknownUnknown / ITSO
Related business
Manufacturer
Boeing/ES
Mission
Spacecraft
Bus & Motor
Unknown
Mass
Unknown
Launch date (UTC)
2016-08-24 (9 years ago)
Launch vehicle
Unknown
Launch site
French Guiana (FRGUI)
Object type
Payload
Rocket body
Debris
Shape & HBR
Unknown shape, 1.1 m
Radar Cross Section
RCS unknown

Expand to show TLE details & history
Last TLE update: 1 week ago

TLE from 1 week ago
0 INTELSAT 33E DEB
1 61990U 16053G   25342.02833272 -.00000301  00000-0  00000-0 0  9998
2 61990   0.9848  73.9032 0112543 282.2657   3.7526  1.01389199  4208
Epoch: 2025-12-08T00:40Z
TLE epoch observation values (Epoch: 2025-12-08T00:40:47.947Z)
Latitude
-0.93983°
Longitude
-87.2306°
Altitude
35,007.952 km
Speed
3.121 km/s
True Right ascension
00h 00m 00s
True Declination
0° 56' 20"
Sunlit
Object was in daylight at epoch
Visualization orbit readout
Latitude
Unknown
Longitude
Unknown
Altitude
Unknown
Speed
Unknown
Apparent Right ascension
Unknown
Apparent Declination
Unknown
Sunlit
N/A
Visualization observer readout
Local Sidereal Time
04:29:59
Azimuth
Unknown
Elevation
Unknown
Doppler factor
Unknown
Orbital elements
Apogee altitude
35,948.355 km
Perigee altitude
35,006.248 km
Semi-major axis
41,855.438 km
Eccentricity
0.01125
Inclination
0.9848°
RAAN
73.9032°
Arg. of periapsis
282.2657°
True anomaly
3.83821°
Mean anomaly
3.7526°
Eccentric anomaly
3.79528°
Mean motion
0.25346 °/min
Orbital period
1,420.32 mins
BSTAR
0
Loading maneuver chart data...
Computing Atmospheric mass density...
Loading historical data...
Loading historical data...
Loading historical data...
Loading historical data...
Loading historical data...
Loading historical data...
Loading historical data...

Documentation

Showing up to 5 results
|